Time,TemperatureF,DewpointF,PressureIn,WindDirection,WindDirectionDegrees,WindSpeedMPH,WindSpeedGustMPH,Humidity,HourlyPrecipIn,Conditions,Clouds,dailyrainin,SoftwareType,DateUTC
2015-06-02 00:02:00,50.2,42.2,30.21,ESE,118,0.0,0.0,74,0.00,,,0.00,VWS V14.01,2015-06-02 04:02:00,
2015-06-02 00:07:00,50.1,42.2,30.21,ESE,118,0.0,0.0,74,0.00,,,0.00,VWS V14.01,2015-06-02 04:07:00,
2015-06-02 00:12:00,50.2,41.9,30.21,ESE,118,0.0,0.0,73,0.00,,,0.00,VWS V14.01,2015-06-02 04:12:00,
2015-06-02 00:17:00,50.2,42.2,30.20,ESE,118,0.0,0.0,74,0.00,,,0.00,VWS V14.01,2015-06-02 04:17:00,
2015-06-02 00:22:00,50.2,42.2,30.20,ESE,118,0.0,0.0,74,0.00,,,0.00,VWS V14.01,2015-06-02 04:22:00,
2015-06-02 00:27:00,50.2,42.2,30.20,ESE,118,0.0,0.0,74,0.00,,,0.00,VWS V14.01,2015-06-02 04:27:00,
2015-06-02 00:32:00,50.1,42.2,30.20,ESE,118,0.0,0.0,74,0.00,,,0.00,VWS V14.01,2015-06-02 04:32:00,
2015-06-02 00:37:00,50.1,42.2,30.20,ESE,118,0.0,0.0,74,0.00,,,0.00,VWS V14.01,2015-06-02 04:37:00,
2015-06-02 00:42:00,50.0,42.0,30.20,ESE,118,0.0,0.0,74,0.00,,,0.00,VWS V14.01,2015-06-02 04:42:00,
2015-06-02 00:47:00,50.0,41.7,30.20,ESE,118,0.0,0.0,73,0.00,,,0.00,VWS V14.01,2015-06-02 04:47:00,
2015-06-02 00:52:00,49.9,41.6,30.20,ESE,118,1.0,1.0,73,0.00,,,0.00,VWS V14.01,2015-06-02 04:52:00,
2015-06-02 00:57:00,49.9,41.6,30.20,ESE,118,0.0,1.0,73,0.00,,,0.00,VWS V14.01,2015-06-02 04:57:00,
2015-06-02 01:01:00,49.7,41.4,30.19,ESE,118,1.0,1.0,73,0.00,,,0.00,VWS V14.01,2015-06-02 05:01:00,
2015-06-02 01:06:00,49.6,41.7,30.19,ESE,118,0.0,2.0,74,0.00,,,0.00,VWS V14.01,2015-06-02 05:06:00,
2015-06-02 01:11:00,49.6,41.3,30.19,ESE,118,0.0,2.0,73,0.00,,,0.00,VWS V14.01,2015-06-02 05:11:00,
2015-06-02 01:21:00,49.6,41.3,30.19,ESE,118,0.0,2.0,73,0.00,,,0.00,VWS V14.01,2015-06-02 05:21:00,
2015-06-02 01:26:00,49.7,41.4,30.19,ESE,118,0.0,2.0,73,0.00,,,0.00,VWS V14.01,2015-06-02 05:26:00,
2015-06-02 01:31:00,49.7,41.4,30.19,ESE,118,0.0,0.0,73,0.00,,,0.00,VWS V14.01,2015-06-02 05:31:00,
2015-06-02 01:36:00,49.7,41.4,30.19,ESE,118,0.0,1.0,73,0.00,,,0.00,VWS V14.01,2015-06-02 05:36:00,
2015-06-02 01:41:00,49.8,41.5,30.18,ESE,118,0.0,1.0,73,0.00,,,0.00,VWS V14.01,2015-06-02 05:41:00,
2015-06-02 01:46:00,49.8,41.5,30.17,ESE,119,2.0,2.0,73,0.00,,,0.00,VWS V14.01,2015-06-02 05:46:00,
2015-06-02 01:51:00,49.8,41.5,30.17,SE,140,0.0,3.0,73,0.00,,,0.00,VWS V14.01,2015-06-02 05:51:00,
2015-06-02 01:56:00,49.8,41.5,30.17,ESE,106,0.0,3.0,73,0.00,,,0.00,VWS V14.01,2015-06-02 05:56:00,
2015-06-02 02:01:00,49.8,41.5,30.17,ESE,106,0.0,0.0,73,0.00,,,0.00,VWS V14.01,2015-06-02 06:01:00,
2015-06-02 02:06:00,49.8,41.5,30.17,ESE,106,0.0,1.0,73,0.00,,,0.00,VWS V14.01,2015-06-02 06:06:00,
2015-06-02 02:11:00,49.8,41.5,30.17,ESE,106,0.0,1.0,73,0.00,,,0.00,VWS V14.01,2015-06-02 06:11:00,
2015-06-02 02:16:00,49.8,41.5,30.17,ESE,106,0.0,2.0,73,0.00,,,0.00,VWS V14.01,2015-06-02 06:16:00,
2015-06-02 02:21:00,49.9,41.6,30.17,ESE,106,0.0,2.0,73,0.00,,,0.00,VWS V14.01,2015-06-02 06:21:00,
2015-06-02 02:26:00,49.9,41.6,30.17,ESE,106,0.0,2.0,73,0.00,,,0.00,VWS V14.01,2015-06-02 06:26:00,
2015-06-02 02:31:00,49.9,41.2,30.17,ESE,106,0.0,0.0,72,0.00,,,0.00,VWS V14.01,2015-06-02 06:31:00,
2015-06-02 02:36:00,49.9,41.2,30.17,ESE,106,0.0,0.0,72,0.00,,,0.00,VWS V14.01,2015-06-02 06:36:00,
2015-06-02 02:41:00,49.9,41.2,30.18,ESE,106,0.0,2.0,72,0.00,,,0.00,VWS V14.01,2015-06-02 06:41:00,
2015-06-02 02:46:00,49.9,41.2,30.18,ESE,106,0.0,2.0,72,0.00,,,0.00,VWS V14.01,2015-06-02 06:46:00,
2015-06-02 02:51:00,49.9,41.2,30.18,ESE,106,1.0,2.0,72,0.00,,,0.00,VWS V14.01,2015-06-02 06:51:00,
2015-06-02 02:56:00,49.8,41.2,30.17,SE,128,0.0,5.0,72,0.00,,,0.00,VWS V14.01,2015-06-02 06:56:00,
2015-06-02 03:01:00,49.6,41.0,30.17,SE,131,0.0,4.0,72,0.00,,,0.00,VWS V14.01,2015-06-02 07:01:00,
2015-06-02 03:06:00,49.5,40.9,30.17,East,96,0.0,4.0,72,0.00,,,0.00,VWS V14.01,2015-06-02 07:06:00,
2015-06-02 03:11:00,49.5,40.9,30.17,East,96,0.0,4.0,72,0.00,,,0.00,VWS V14.01,2015-06-02 07:11:00,
2015-06-02 03:16:00,49.4,40.8,30.18,East,96,0.0,4.0,72,0.00,,,0.00,VWS V14.01,2015-06-02 07:16:00,
2015-06-02 03:21:00,49.4,40.8,30.18,East,96,0.0,4.0,72,0.00,,,0.00,VWS V14.01,2015-06-02 07:21:00,
2015-06-02 03:26:00,49.4,40.8,30.18,East,96,0.0,4.0,72,0.00,,,0.00,VWS V14.01,2015-06-02 07:26:00,
2015-06-02 03:31:00,49.4,40.8,30.18,East,96,0.0,2.0,72,0.00,,,0.00,VWS V14.01,2015-06-02 07:31:00,
2015-06-02 03:36:00,49.3,40.7,30.18,East,96,0.0,2.0,72,0.00,,,0.00,VWS V14.01,2015-06-02 07:36:00,
2015-06-02 03:41:00,49.3,40.7,30.18,East,96,1.0,3.0,72,0.00,,,0.00,VWS V14.01,2015-06-02 07:41:00,
2015-06-02 03:46:00,49.3,40.7,30.17,East,96,0.0,3.0,72,0.00,,,0.00,VWS V14.01,2015-06-02 07:46:00,
2015-06-02 03:51:00,49.4,40.8,30.18,East,96,0.0,3.0,72,0.00,,,0.00,VWS V14.01,2015-06-02 07:51:00,
2015-06-02 03:56:00,49.4,40.8,30.17,East,96,0.0,3.0,72,0.00,,,0.00,VWS V14.01,2015-06-02 07:56:00,
2015-06-02 04:01:00,49.3,40.7,30.17,East,96,0.0,0.0,72,0.00,,,0.00,VWS V14.01,2015-06-02 08:01:00,
2015-06-02 04:06:00,49.3,40.7,30.17,East,96,0.0,0.0,72,0.00,,,0.00,VWS V14.01,2015-06-02 08:06:00,
2015-06-02 04:11:00,49.3,40.7,30.17,East,96,0.0,0.0,72,0.00,,,0.00,VWS V14.01,2015-06-02 08:11:00,
2015-06-02 04:16:00,49.3,40.3,30.17,East,96,0.0,1.0,71,0.00,,,0.00,VWS V14.01,2015-06-02 08:16:00,
2015-06-02 04:21:00,49.3,40.3,30.17,East,96,0.0,1.0,71,0.00,,,0.00,VWS V14.01,2015-06-02 08:21:00,
2015-06-02 04:26:00,49.3,40.7,30.17,East,96,0.0,1.0,72,0.00,,,0.00,VWS V14.01,2015-06-02 08:26:00,
2015-06-02 04:31:00,49.3,40.3,30.17,East,96,0.0,0.0,71,0.00,,,0.00,VWS V14.01,2015-06-02 08:31:00,
2015-06-02 04:36:00,49.3,40.3,30.17,East,96,0.0,0.0,71,0.00,,,0.00,VWS V14.01,2015-06-02 08:36:00,
2015-06-02 04:41:00,49.3,40.3,30.17,East,96,0.0,1.0,71,0.00,,,0.00,VWS V14.01,2015-06-02 08:41:00,
2015-06-02 04:46:00,49.3,40.3,30.17,East,96,0.0,1.0,71,0.00,,,0.00,VWS V14.01,2015-06-02 08:46:00,
2015-06-02 04:51:00,49.3,40.3,30.17,East,96,0.0,1.0,71,0.00,,,0.00,VWS V14.01,2015-06-02 08:51:00,
2015-06-02 04:56:00,49.3,40.3,30.17,East,96,0.0,1.0,71,0.00,,,0.00,VWS V14.01,2015-06-02 08:56:00,
2015-06-02 05:01:00,49.2,40.2,30.17,East,96,0.0,0.0,71,0.00,,,0.00,VWS V14.01,2015-06-02 09:01:00,
2015-06-02 05:06:00,49.2,40.2,30.17,East,86,0.0,0.0,71,0.00,,,0.00,VWS V14.01,2015-06-02 09:06:00,
2015-06-02 05:11:00,49.2,40.2,30.17,ENE,75,0.0,0.0,71,0.00,,,0.00,VWS V14.01,2015-06-02 09:11:00,
2015-06-02 05:16:00,49.1,40.1,30.17,SSE,151,1.0,2.0,71,0.00,,,0.00,VWS V14.01,2015-06-02 09:16:00,
2015-06-02 05:21:00,49.1,40.1,30.17,NNE,33,0.0,2.0,71,0.00,,,0.00,VWS V14.01,2015-06-02 09:21:00,
2015-06-02 05:26:00,49.0,40.0,30.17,NE,50,0.0,2.0,71,0.00,,,0.00,VWS V14.01,2015-06-02 09:26:00,
2015-06-02 05:31:00,49.0,40.0,30.17,NE,50,0.0,1.0,71,0.00,,,0.00,VWS V14.01,2015-06-02 09:31:00,
2015-06-02 05:36:00,49.0,40.0,30.17,NE,50,0.0,1.0,71,0.00,,,0.00,VWS V14.01,2015-06-02 09:36:00,
2015-06-02 05:41:00,49.1,40.1,30.17,NE,50,0.0,1.0,71,0.00,,,0.00,VWS V14.01,2015-06-02 09:41:00,
2015-06-02 05:46:00,49.1,40.1,30.17,NE,50,0.0,1.0,71,0.00,,,0.00,VWS V14.01,2015-06-02 09:46:00,
2015-06-02 05:51:00,49.0,40.0,30.17,NE,49,0.0,3.0,71,0.00,,,0.00,VWS V14.01,2015-06-02 09:51:00,
2015-06-02 05:56:00,49.1,40.1,30.17,NE,49,0.0,3.0,71,0.00,,,0.00,VWS V14.01,2015-06-02 09:56:00,
2015-06-02 06:01:00,49.0,40.0,30.17,NE,49,0.0,2.0,71,0.00,,,0.00,VWS V14.01,2015-06-02 10:01:00,
2015-06-02 06:06:00,49.0,40.0,30.17,ENE,67,0.0,2.0,71,0.00,,,0.00,VWS V14.01,2015-06-02 10:06:00,
2015-06-02 06:11:00,49.0,40.0,30.17,ENE,76,0.0,2.0,71,0.00,,,0.00,VWS V14.01,2015-06-02 10:11:00,
2015-06-02 06:16:00,49.0,39.7,30.17,ENE,76,0.0,2.0,70,0.00,,,0.00,VWS V14.01,2015-06-02 10:16:00,
2015-06-02 06:21:00,49.1,39.8,30.17,ENE,76,1.0,2.0,70,0.00,,,0.00,VWS V14.01,2015-06-02 10:21:00,
2015-06-02 06:26:00,49.1,39.8,30.17,ENE,76,0.0,4.0,70,0.00,,,0.00,VWS V14.01,2015-06-02 10:26:00,
2015-06-02 06:31:00,49.1,39.8,30.17,ENE,76,1.0,1.0,70,0.00,,,0.00,VWS V14.01,2015-06-02 10:31:00,
2015-06-02 06:36:00,49.1,39.8,30.17,ENE,77,0.0,3.0,70,0.00,,,0.00,VWS V14.01,2015-06-02 10:36:00,
2015-06-02 06:41:00,49.0,39.7,30.17,ENE,78,1.0,3.0,70,0.00,,,0.00,VWS V14.01,2015-06-02 10:41:00,
2015-06-02 06:46:00,49.0,39.7,30.17,ENE,78,0.0,3.0,70,0.00,,,0.00,VWS V14.01,2015-06-02 10:46:00,
2015-06-02 06:51:00,49.0,39.7,30.17,East,86,0.0,3.0,70,0.00,,,0.00,VWS V14.01,2015-06-02 10:51:00,
2015-06-02 06:56:00,49.0,39.7,30.17,East,86,1.0,3.0,70,0.00,,,0.00,VWS V14.01,2015-06-02 10:56:00,
2015-06-02 07:01:00,49.0,39.7,30.17,East,86,1.0,2.0,70,0.00,,,0.00,VWS V14.01,2015-06-02 11:01:00,
2015-06-02 07:06:00,49.1,39.8,30.17,East,86,0.0,2.0,70,0.00,,,0.00,VWS V14.01,2015-06-02 11:06:00,
2015-06-02 07:11:00,49.1,39.8,30.17,ENE,57,1.0,3.0,70,0.00,,,0.00,VWS V14.01,2015-06-02 11:11:00,
2015-06-02 07:16:00,49.1,39.4,30.17,ENE,57,0.0,3.0,69,0.00,,,0.00,VWS V14.01,2015-06-02 11:16:00,
2015-06-02 07:21:00,49.3,39.6,30.17,ENE,57,0.0,3.0,69,0.00,,,0.00,VWS V14.01,2015-06-02 11:21:00,
2015-06-02 07:26:00,49.4,39.7,30.17,ENE,57,0.0,3.0,69,0.00,,,0.00,VWS V14.01,2015-06-02 11:26:00,
2015-06-02 07:31:00,49.4,39.7,30.18,ENE,58,0.0,0.0,69,0.00,,,0.00,VWS V14.01,2015-06-02 11:31:00,